Simultaneous Nadir Overpasses (SNOs) Predictions

Prediction of SNOs between GOES-16 and AQUA Satellite Orbit:

Table of predicted SNOs for the next 14.0 days since TLE Epoch: 2/11/2023
Index Date Time (GOES-16) GOES-16 Lat,Lon AQUA Lat,Lon Distance(km) Time Diff (sec)
1 02/11/2023 07:04:26 -0.05, -75.19 0.83, -79.47 485.90 80
2 02/12/2023 18:30:10 0.05, -75.20 0.94, -71.15 461.34 80
3 02/13/2023 06:51:08 -0.05, -75.20 0.17, -76.23 116.41 80
4 02/15/2023 06:35:09 -0.04, -75.21 -0.51, -72.98 253.65 80
5 02/15/2023 18:56:16 0.04, -75.21 -0.55, -78.10 327.58 80
6 02/17/2023 18:45:35 0.03, -75.22 0.10, -74.84 43.55 80
7 02/19/2023 18:32:14 0.02, -75.24 0.82, -71.59 415.97 80
8 02/20/2023 06:53:11 -0.01, -75.25 0.28, -76.66 160.58 80
9 02/22/2023 06:37:08 -0.01, -75.27 -0.41, -73.40 213.35 80
10 02/22/2023 18:58:12 0.01, -75.28 -0.70, -78.50 366.93 80
11 02/24/2023 18:47:28 0.01, -75.32 0.02, -75.24 8.74 80
